BREEZE-M R/B, 41582

Orbit data source: Space-Track

BREEZE-M R/B, 41582 is space debris in HEO originally from a launch on Thu, 09 Jun 2016 UTC launched from the Tyuratam Missile And Space Complex (TTMTR). Debris objects in space refer to the collection of defunct objects orbiting the Earth. Examples of debris include non-operational satellites, rocket bodies, and fragments generated from explosions, collisions, or faulty payload assembly.

Loading next visibility...
BREEZE-M R/B details
Identifier
41582, 2016-035B
Orbit
HEO
Last TLE update1 day ago
Origin
Flag of CISKhrunichev (CIS)
ManufacturerKhrunichev
MissionSpacecraft
Bus & MotorBRIZ, Unknown motor
Mass~1,600 kg wet, 1,600 kg dry
Launch date (UTC)
2016-06-09 (9 years ago)
Launch vehicleUnknown
Launch site
Tyuratam Missile And Space Complex (TTMTR)
Object type
Payload
Rocket body
Debris
Shape & HBRCyl, 4 m
Radar Cross Section14.451 m², Large (>1 m²)

Expand to show TLE details & history

TLE from 1 day ago
0 BREEZE-M R/B
1 41582U 16035B   24360.24770203 -.00000312  00000-0  00000-0 0  9992
2 41582  32.2836 354.1015 7921499  57.5636 355.5864  1.12665422 35168
Epoch: 2024-12-25T05:56Z
Definitive object data (Epoch: 2024-12-25T05:56:41.455Z)
Latitude-0.00007°
Longitude170.62536°
Altitude3,795.251 km
Speed8.255 km/s
True Right ascension23h 36m 10s
True Declination0° 00' 00"
Sunlit
Object was in daylight at TLE epoch
Visualization TLE readout
Latitude-22.9072°
Longitude32.49204°
Altitude58,831.16 km
Speed1.417 km/s
Apparent Right ascension14h 40m 52s
Apparent Declination-26° 54' 40"
Sunlit
Object is in daylight
Visualization observer readout
Local Sidereal Time10:12:18
Azimuth124.72° SE
Elevation-1.419°
Doppler factor1
Orbital elements
Apogee altitude63,543.937 km
Perigee altitude1,731.291 km
Semi-major axis39,015.751 km
Eccentricity0.7921499
Inclination32.2836°
RAAN354.1015°
Arg. of periapsis57.5636°
True anomaly305.84599°
Mean anomaly355.5864°
Eccentric anomaly340.24774°
Mean motion0.28163 °/min
BSTARUnknown
Orbital period1278.26 mins
Loading maneuver chart data...
Loading historical data...
Loading historical data...
Loading historical data...
Loading historical data...
Loading historical data...
Loading historical data...
Loading historical data...
Other satellites on launch #35 in the year 2016 (2016-06-09 UTC)

BREEZE-M R/B Visibility forecast

Observer location: undefined°, undefined

Span
Click to sort rows by Start time (UTC) header in descending order
Start Az.
Max El. time (UTC)
Max El. Az.
Max El.
End time (UTC)
End Az.
331 mins2024-12-26 12:58:02.981Z144.485° SSE2024-12-26 15:42:02.981Z173.667° S15.719°2024-12-26 18:29:02.981Z201.289° SSW
13 mins2024-12-27 00:32:02.981Z190.853° SSW2024-12-27 00:40:02.981Z160.022° S15.265°2024-12-27 00:45:02.981Z126.47° SE
|